EHI
0 1 2 1 0 0 0 1 1 1 0 0 0 0 0 0 0 0 0 0 0 0 0 1 2 3 3 3 3 3 2 2 1 1 1 0 0 0 1 1 1 0 0
0 1 2 2 1 0 0 0 1 1 1 0 0 0 0 0 0 0 0 0 0 0 0 0 1 2 2 2 2 2 1 1 0 0 0 0 0 1 1 1 0 0 0
0 0 1 1 1 0 0 0 0 1 2 1 1 0 0 0 0 0 0 0 0 0 0 0 0 1 1 1 1 1 0 0 0 0 0 0 0 1 2 1 0 0 0
0 0 0 0 0 0 0 0 0 1 2 2 2 1 0 0 0 0 0 0 0 0 0 0 0 0 0 0 0 0 0 0 0 0 0 0 0 1 2 2 1 0 0
0 0 0 0 0 0 0 0 0 1 1 2 2 1 0 0 0 0 0 0 0 0 0 0 0 0 0 1 0 0 0 0 0 0 0 0 0 1 1 1 2 2 2
0 0 0 0 0 0 0 0 0 0 0 1 1 0 0 0 0 0 0 0 0 0 0 0 0 0 0 0 0 0 0 0 0 0 0 0 0 1 1 1 3 4 3
0 0 0 0 0 0 0 0 0 0 0 0 0 0 0 0 0 0 0 0 0 0 0 0 0 0 0 0 0 0 0 0 0 0 0 0 0 0 1 2 3 3 3
0 0 0 0 0 0 0 0 0 0 0 0 0 0 0 0 0 0 0 0 0 0 0 0 0 0 0 0 0 0 1 1 1 0 0 0 0 0 0 1 1 1 1
0 0 0 0 0 0 0 0 0 0 0 0 0 0 0 0 0 0 0 0 0 0 0 0 0 0 0 0 0 0 1 1 1 0 0 0 1 0 0 0 0 0 0
0 0 0 0 0 0 0 0 0 0 0 0 0 0 0 0 0 0 0 0 0 0 0 0 0 0 0 0 0 0 0 0 0 0 0 0 0 0 0 0 0 0 0
0 0 0 0 0 0 0 0 0 0 0 0 0 1 0 0 0 0 0 0 0 0 0 0 0 0 0 0 0 0 0 0 0 0 0 0 0 0 0 0 0 0 0
0 0 0 0 0 0 0 0 0 0 0 0 0 0 0 0 0 0 0 0 0 0 0 0 0 0 0 0 0 0 0 0 0 0 0 0 0 0 0 1 0 0 0
0 0 0 0 0 0 0 0 0 0 0 0 0 0 0 0 0 0 0 0 0 0 0 0 0 0 0 0 0 0 0 0 0 0 0 0 0 0 0 0 0 0 0
0 0 0 0 0 0 0 0 0 0 0 0 0 0 0 0 0 0 0 0 0 0 0 0 0 0 0 0 0 0 0 0 0 0 0 0 0 0 0 0 0 0 0
0 0 0 0 0 0 0 0 0 0 0 0 0 0 0 0 0 0 0 0 0 0 0 0 0 0 0 0 0 0 0 0 0 0 0 0 0 0 0 0 0 0 0
0 0 0 0 0 0 0 0 0 0 0 0 0 0 0 0 0 0 0 0 0 0 0 0 0 0 0 0 0 0 0 0 0 0 0 0 0 0 0 0 0 0 0
0 0 0 0 0 0 0 0 0 0 0 0 0 0 0 0 0 0 0 0 0 0 0 0 0 0 0 0 0 0 0 0 0 0 0 0 0 0 0 0 0 0 0
0 0 0 0 0 0 0 0 0 0 0 0 0 0 0 0 0 0 0 0 0 0 0 0 0 0 0 0 0 0 0 0 0 0 0 0 0 0 0 0 0 0 0
0 0 0 0 0 0 0 0 0 0 0 0 0 0 0 0 0 0 0 0 0 0 0 0 0 0 0 0 0 0 0 0 0 0 0 0 0 0 0 0 0 0 0
0 0 0 0 0 0 0 0 0 0 0 0 0 0 0 0 0 0 0 0 0 0 0 0 0 0 0 0 0 0 0 0 0 0 0 0 0 0 0 0 0 0 0
0 0 0 0 0 0 0 1 0 0 0 0 0 0 0 0 0 0 0 0 0 0 0 0 0 0 0 0 0 0 0 0 0 0 0 0 0 0 0 0 0 0 0
1 1 0 0 0 0 0 0 0 0 0 0 0 0 0 0 0 0 0 0 0 0 0 0 0 0 0 0 0 0 0 0 0 0 0 0 0 0 0 0 0 0 0
0 0 0 0 0 0 0 0 0 0 0 0 0 0 0 0 0 0 0 0 0 0 0 0 0 0 0 0 0 0 0 0 0 0 0 0 0 0 0 0 0 0 0
0 0 0 1 1 1 0 0 0 0 0 0 0 0 0 0 0 0 0 0 0 0 0 0 0 0 0 0 0 0 0 0 0 0 0 0 0 0 0 0 0 0 0
0 0 1 2 2 2 1 1 0 0 0 0 0 0 0 0 0 0 0 0 0 0 0 0 0 0 0 0 0 0 0 0 0 0 0 0 0 0 0 0 0 0 0
0 1 2 3 3 3 2 2 1 0 0 0 0 0 0 0 0 0 0 0 0 0 0 0 0 0 0 0 0 0 0 0 0 0 0 0 0 0 0 0 0 0 0
Wind_Speed
3 4 5 4 5 6 7 7 7 7 7 8 8 8 8 8 8 8 7 8 9 9 9 10 9 10 10 9 9 9 9 8 8 8 7 7 7 7 6 4 2 4 7
4 4 5 4 6 6 7 7 7 7 7 8 8 8 8 8 8 8 8 9 9 9 10 10 10 10 9 9 9 9 8 8 7 7 5 6 7 6 6 5 4 5 6
4 4 5 5 5 6 6 7 7 7 7 7 8 8 8 8 8 9 9 9 9 9 9 10 10 10 10 9 9 9 9 8 7 4 1 3 6 7 6 5 5 5 5
5 5 6 6 6 6 6 7 7 7 7 7 8 8 8 8 8 8 9 9 9 9 9 10 10 10 10 10 10 9 9 8 6 2 2 5 5 8 6 5 5 5 4
5 5 6 5 6 6 6 6 7 8 8 8 8 8 8 8 8 8 8 9 9 9 10 10 10 10 10 10 10 9 8 7 4 3 6 5 5 8 7 6 5 5 5
5 5 7 5 6 6 6 7 7 8 8 8 8 8 8 8 8 8 8 8 8 9 9 10 9 10 10 10 10 9 8 6 3 5 5 5 6 8 7 6 5 5 5
6 5 6 6 6 6 6 6 7 8 7 8 8 8 8 8 8 8 8 9 9 9 10 10 10 10 10 10 9 9 8 5 5 5 5 6 7 8 7 6 6 6 6
5 4 6 7 6 6 6 6 6 7 7 7 7 7 8 8 8 8 8 9 9 9 9 9 9 9 9 9 9 9 8 6 5 6 6 6 8 7 7 6 6 6 6
5 4 4 6 7 7 6 6 6 6 6 6 6 7 8 7 7 8 8 8 8 8 9 9 9 9 9 9 9 9 8 6 5 5 6 6 8 7 7 7 7 7 7
5 4 5 5 5 5 6 7 6 5 5 6 6 7 6 6 7 6 7 8 8 8 9 9 9 9 10 10 9 8 5 3 6 7 6 7 8 7 8 8 8 8 7
5 4 4 4 4 4 5 6 5 6 5 4 6 6 3 4 5 5 9 8 8 8 8 9 9 8 7 8 8 5 3 4 6 6 6 9 8 8 8 8 8 8 8
5 4 4 4 4 4 4 4 3 3 3 3 4 4 3 4 4 5 8 8 7 7 7 7 6 4 2 4 5 2 3 6 6 6 7 10 9 9 8 8 8 8 8
4 4 3 4 4 4 3 3 2 2 2 3 4 4 4 4 4 4 4 5 5 4 5 5 3 4 5 5 4 5 6 5 5 5 8 11 11 11 10 10 9 9 9
4 4 3 3 4 4 4 3 2 2 2 2 3 4 3 3 3 4 3 3 3 3 3 4 3 5 6 6 6 7 7 5 5 4 8 12 11 11 11 11 11 10 10
4 4 4 3 3 4 4 2 3 3 2 3 3 3 4 3 3 3 3 3 3 3 3 3 4 6 5 6 6 7 7 7 7 6 5 12 13 12 12 11 11 10 10
3 4 4 4 4 3 3 3 3 3 3 2 3 3 3 3 3 3 3 3 3 3 3 3 4 4 4 5 6 7 7 6 6 6 5 7 11 12 12 11 11 10 10
3 3 4 3 3 3 3 3 3 2 3 3 3 3 3 3 3 2 3 3 3 3 4 3 5 4 4 4 5 6 5 6 5 6 6 4 6 10 13 12 12 11 11
3 4 4 3 3 3 3 2 2 2 2 2 2 2 2 3 3 3 2 3 3 3 3 3 2 3 4 4 4 4 4 4 5 5 4 4 4 5 8 12 12 11 10
3 3 4 4 3 4 3 2 2 2 2 2 2 2 2 2 2 3 3 2 3 2 2 2 2 2 3 3 3 3 3 3 4 4 5 5 5 4 5 8 10 11 10
3 3 4 4 3 4 3 2 2 2 2 2 2 2 2 1 2 3 2 3 3 2 2 2 3 2 2 2 3 3 3 3 3 4 4 4 4 5 5 5 4 7 10
4 4 4 5 4 4 2 2 2 2 1 2 2 2 2 1 2 2 2 2 2 2 2 2 2 3 2 2 1 2 2 3 4 3 3 3 4 5 4 4 4 3 4
4 4 4 4 4 4 2 1 1 2 1 2 2 2 1 2 2 2 2 2 2 2 2 2 2 1 1 1 1 1 1 2 2 3 2 2 3 3 4 4 4 4 4
4 4 3 4 4 4 3 2 2 2 2 2 2 2 1 2 2 1 2 2 2 2 2 2 2 1 1 0 1 2 2 1 1 2 3 2 3 2 2 3 4 5 4
4 4 4 4 4 4 4 3 4 3 2 2 2 2 2 2 3 2 2 2 2 1 2 2 1 1 1 1 0 2 3 1 1 1 1 2 2 2 2 2 3 4 4
4 4 3 4 4 3 3 3 3 2 2 2 2 3 2 2 2 2 2 2 2 1 1 1 1 1 1 1 1 0 1 1 3 1 0 1 1 1 2 2 2 3 3
4 4 4 4 4 3 3 3 3 3 3 3 3 2 2 2 2 2 2 2 2 2 2 1 1 1 1 1 1 1 1 1 1 1 1 1 0 1 1 1 1 2 2
Wind_Direction
100 89 80 79 89 95 95 97 98 96 97 98 97 93 90 86 82 80 84 82 81 80 79 77 73 73 73 73 72 70 70 71 71 70 72 72 73 74 74 80 101 106 92
104 95 89 84 94 96 98 99 97 97 97 98 100 95 91 86 82 81 82 83 82 81 78 76 76 75 74 74 73 70 67 64 65 68 76 91 83 70 68 65 50 72 89
105 101 109 92 95 99 99 97 96 93 96 99 100 99 95 89 85 83 82 83 84 83 81 78 75 74 73 72 70 68 66 61 61 62 66 90 92 77 64 68 73 84 91
107 105 94 92 93 97 99 99 97 98 99 98 99 99 97 92 87 84 82 82 84 84 83 80 74 74 74 71 69 65 63 60 56 4 62 62 69 75 62 63 72 80 89
104 100 93 92 94 98 102 103 100 99 98 97 97 98 97 94 88 83 84 84 84 83 83 80 75 76 75 72 69 65 61 57 46 35 54 54 62 67 58 59 66 74 83
102 96 96 94 93 91 96 100 98 96 97 98 96 95 95 94 90 87 85 84 85 83 83 80 78 76 73 71 69 65 62 53 50 60 56 55 62 64 58 60 68 72 78
102 93 98 90 89 90 90 98 99 96 95 95 93 90 89 88 88 86 83 83 84 83 84 80 77 74 72 69 66 63 58 33 58 64 57 55 60 62 60 61 65 69 76
99 99 103 100 87 85 83 88 100 101 98 94 92 90 86 82 83 85 83 82 81 82 83 81 77 72 69 67 65 62 50 11 63 58 58 58 59 60 65 65 66 68 74
95 97 96 107 109 100 81 80 91 96 96 96 92 89 84 80 80 82 82 80 77 78 82 82 79 73 70 68 64 60 50 17 42 52 57 58 59 59 65 69 69 73 75
99 97 98 101 102 107 103 85 83 94 97 99 95 90 92 100 100 96 93 80 76 74 77 79 76 74 71 67 62 56 40 8 47 50 48 58 55 58 62 67 70 72 73
104 98 95 94 89 87 86 93 107 112 108 135 128 122 138 103 97 105 79 78 75 73 77 77 74 73 81 83 66 48 31 46 51 49 48 51 51 56 62 66 69 69 70
110 105 101 99 97 92 85 93 94 107 112 117 115 115 99 88 84 88 94 87 85 88 94 85 85 97 70 78 87 73 49 54 51 53 55 53 51 55 62 67 68 70 72
107 102 104 107 104 96 94 83 75 82 89 98 105 108 105 103 111 100 102 110 109 111 92 100 102 65 61 58 47 51 45 44 47 47 54 54 52 56 63 66 68 69 68
109 106 115 118 117 108 99 92 93 94 87 89 95 98 100 93 92 90 90 86 91 84 76 69 64 66 63 64 57 54 54 50 50 52 54 49 49 55 60 65 66 67 65
121 124 126 127 113 106 96 97 101 91 80 90 84 88 98 99 95 92 93 89 84 83 88 75 66 62 58 57 53 51 52 51 52 54 61 54 45 49 55 60 64 66 65
139 133 131 134 116 114 113 112 98 97 101 86 89 91 101 105 104 98 91 85 80 79 76 79 75 67 60 58 54 54 48 51 51 54 55 67 59 48 49 55 61 65 65
147 143 130 133 130 117 102 95 95 103 105 98 92 91 103 113 120 109 90 90 86 84 84 76 76 70 69 67 60 55 52 44 45 54 57 51 68 66 51 49 54 59 63
151 145 136 141 146 123 113 110 105 103 98 103 102 94 91 109 116 106 102 95 96 93 90 88 78 76 75 66 58 54 56 55 44 46 55 61 53 55 65 55 50 53 59
148 150 152 153 153 135 129 123 105 102 102 108 115 107 106 103 111 109 96 94 96 97 94 98 86 77 79 73 71 61 53 53 50 47 51 51 58 55 61 73 62 52 52
151 151 147 145 152 142 145 139 124 107 111 111 115 115 106 109 107 102 111 107 100 109 107 106 104 93 83 79 70 60 53 59 59 48 44 46 46 50 47 51 65 71 61
161 159 148 154 154 157 155 161 158 149 147 124 116 112 130 139 127 109 121 108 115 114 111 113 104 112 120 119 111 97 90 69 57 60 45 45 55 50 50 56 50 48 76
168 166 162 162 163 165 165 176 164 152 148 113 118 123 146 150 135 142 148 134 135 130 135 116 112 102 105 226 287 265 174 133 80 62 65 50 47 57 42 41 48 51 44
181 179 174 173 169 165 166 166 157 151 159 156 140 124 128 134 130 143 137 142 145 153 142 155 157 172 191 216 315 305 301 28 91 96 60 60 54 44 43 39 39 44 48
180 180 181 179 175 168 168 179 182 185 169 150 133 131 137 133 133 146 153 155 152 160 161 182 178 219 244 242 98 319 324 2 266 151 127 68 54 45 39 44 35 42 46
174 179 187 175 173 169 171 173 199 180 150 138 142 147 147 132 138 152 162 159 162 172 168 144 168 252 259 304 324 320 346 290 275 279 190 139 107 76 54 47 45 42 47
171 175 181 181 169 165 171 176 189 175 175 165 163 160 165 147 148 140 158 164 166 161 162 169 183 233 291 310 286 272 259 261 284 296 261 224 90 72 77 65 54 53 51